Regional Weather Roundup
Issued by NWS

Home | Current Version | Previous Version | Text Only | Print | Product List | Glossary On
Versions: 1 2 3 4 5 6 7 8 9 10 11 12 13 14 15 16 17 18 19 20 21 22 23 24 25 26 27 28 29 30 31 32 33 34 35 36 37 38 39 40 41 42 43 44 45 46 47 48 49 50
000
ASUS43 KIND 011009
RWRIN

WEATHER ROUNDUP FOR INDIANA
NATIONAL WEATHER SERVICE INDIANAPOLIS IN
500 AM EST SUN FEB 01 2015

NOTE: "FAIR" INDICATES FEW OR NO CLOUDS BELOW 12,000 FEET WITH NO
SIGNIFICANT WEATHER AND/OR OBSTRUCTIONS TO VISIBILITY.

* - STATION DOES NOT REPORT WEATHER SUCH AS PRECIPITATION OR FOG.

+ - STATION NOT QUALITY CONTROLLED BY THE NATIONAL WEATHER SERVICE.
    USE DATA WITH CAUTION...ESPECIALLY DEWPOINT AND RELATIVE
    HUMIDITY OBSERVATIONS.

INZ001>003-010>013-019-020-011100-
NORTHWEST INDIANA

CITY           SKY/WX    TMP DP  RH WIND       PRES   REMARKS
KNOX *+        CLOUDY    32  28  86 SE5       30.06F WCI  27
LA PORTE +     LGT SNOW  33  33 100 E6        30.05F WCI  28
MICHIGAN CITY+ LGT SNOW  32  30  93 E3        30.06F
MONTICELLO +   LGT SNOW  32  32 100 SE3       30.07F
RENSSELAER +   MIX PCPN  32  32 100 SE6       30.06F WCI  26
VALPARAISO     LGT SNOW  32  31  96 SE7       30.05F FOG     WCI  26

$$

LMZ046-743>745-011100-
SOUTHERN LAKE MICHIGAN

STATION/POSITION TIME  TEMP WIND        PRES
                       AIR  DIR/SP/G
                 (UTC) (F)  (DEG/KT/KT) (MB)
MICHIGAN CITY    1000   30   60/  7/  8   N/A

$$

INZ004-005-014>016-021>024-011100-
NORTH CENTRAL INDIANA

CITY           SKY/WX    TMP DP  RH WIND       PRES   REMARKS
GOSHEN         LGT SNOW  32  31  96 NE5       30.08F VSB 3/4 WCI  27
LOGANSPORT +   LGT RAIN  32  32 100 SE6       30.09S WCI  26
PERU/GRISSOM   LGT SNOW  32  32 100 S7        30.08R FOG     WCI  26
ROCHESTER +    LGT SNOW  34  34 100 CALM      30.08S
SOUTH BEND     LGT SNOW  31  28  89 E10       30.08F VSB 1   WCI  22
WARSAW +       LGT SNOW  32  32 100 CALM      30.08F

$$

INZ006>009-017-018-025>027-011100-
NORTHEAST INDIANA

CITY           SKY/WX    TMP DP  RH WIND       PRES   REMARKS
ANGOLA *+      CLOUDY    28  28 100 E5        30.09F WCI  23
AUBURN +       LGT SNOW  32  32 100 CALM      30.10F
FORT WAYNE     LGT SNOW  32  32 100 SE3       30.10F VSB 1
HUNTINGTON +   LGT RAIN  32  29  90 CALM      30.09S

$$

INZ028-029-035-036-043>045-051>053-011100-
WEST CENTRAL INDIANA

CITY           SKY/WX    TMP DP  RH WIND       PRES   REMARKS
CRAWFORDSVL +  CLOUDY    31  26  81 E15       30.03F WCI  21
GREENCASTLE +  CLOUDY    32  28  86 CALM      30.05F
LAFAYETTE      LGT SNOW  32  31  96 E7        30.04F FOG     WCI  26
TERRE HAUTE    CLOUDY    34  28  79 E7        30.00F WCI  28

$$

INZ030>032-037>040-046>048-054>057-064-065-011100-
CENTRAL INDIANA

CITY           SKY/WX    TMP DP  RH WIND       PRES   REMARKS
CP ATTERBURY + CLOUDY    32  30  93 CALM      30.08F
FRANKFORT +    LGT SNOW N/A N/A N/A NE3       30.07F
GREENWOOD *+   CLOUDY    32  28  86 CALM      30.07F
INDIANAPOLIS   CLOUDY    30  29  96 N6        30.06F WCI  24
-EAGLE CREEK   CLOUDY    31  30  96 E3        30.06F FOG
KOKOMO *+      CLOUDY    34  28  80 S8        30.09S WCI  27
MARION +       LGT SNOW  32  32 100 S7        30.11R WCI  26
MT COMFORT *+  CLOUDY    32 N/A N/A E6        30.07F WCI  26
SHELBYVILLE    CLOUDY    35  28  75 E10       30.05F WCI  27
ZIONSVILLE +   CLOUDY    32  30  92 E5        30.07F FOG     WCI  28

$$

INZ033-034-041-042-049-050-058-059-011100-
EAST CENTRAL INDIANA

CITY           SKY/WX    TMP DP  RH WIND       PRES   REMARKS
MUNCIE         CLOUDY    33  31  92 S6        30.10S FOG     WCI  28

$$

INZ060-061-067>069-081>083-085>088-011100-
SOUTHWEST INDIANA

CITY           SKY/WX    TMP DP  RH WIND       PRES   REMARKS
EVANSVILLE     CLOUDY    40  22  48 E5        29.99F
HUNTINGBURG *+ CLOUDY    37  21  52 SE8       30.01F
WASHINGTON +   CLOUDY    35  23  62 SE6       29.99F WCI  30

$$

INZ062-063-066-070>080-084-089>092-011100-
SOUTH CENTRAL AND SOUTHEAST INDIANA

CITY           SKY/WX    TMP DP  RH WIND       PRES   REMARKS
BLOOMINGTON    CLOUDY    34  26  72 SE8       30.03F WCI  27
NORTH VERNON + CLOUDY    36  25  64 SE5       30.08F
SEYMOUR +      CLOUDY    36  28  75 NE3       30.06F

$$




USA.gov is the U.S. government's official web portal to all federal, state and local government web resources and services.